sat.trackr.live / text

‹ back to catalog

STARLINK-32562

NORAD 62168 · 2024-225F

PAYLOAD ACTIVE UNKNOWN

§ Identity

Operator
Country
US
Launch date
2024-11-30
Launch site
AFWTR
Launch vehicle
Mass (kg)
RCS (m²)

Purposes: comms

External: N2YO · Heavens-Above · Gunter

§ Orbital elements

Epoch: 2026-05-24T22:06:32.774688Z

Period
96.11 min
Inclination
70.0019°
Eccentricity
0.0002054
Mean motion
14.98334452 rev/d
Perigee alt
570.6 km
Apogee alt
573.5 km
Semi-major
6,950.2 km
B*
2.2426e-4
RAAN
332.2513°
Arg perigee
266.6964°
Mean anomaly
93.3960°
Rev number
8,129

§ Raw data

STARLINK-325621 62168U 24225F   26144.92121267  .00002584  00000+0  22426-3 0  99922 62168  70.0019 332.2513 0002054 266.6964  93.3960 14.98334452 81294

JSON: /api/v1/satellites/62168 · /tle

For live sub-satellite position, see the globe view (requires WebGL).

§ Visibility from observer

Set your observer location to see the next 7 days of passes ≥ 10°. The values pass through the URL so the page stays shareable.

No JS? Fill the form by hand. The geolocation button needs JavaScript.